Location: Normandy Village
(37.8755°N, 122.2655°W)
Time: 11:19:59
(UTC+00:00)

Shenzhou-11 Module - Pass Details

Date: 14 December 2019
Orbit: 303 x 315 km, 42.8° (Epoch: 18 January)

Event Time Altitude Azimuth Distance (km) Brightness Sun altitude
Rises 01:20:56 0° 293° (WNW) 2,066 6.5 -6.2°
Reaches altitude 10° 01:22:56 10° 295° (WNW) 1,230 5.3 -6.6°
Maximum altitude 01:25:41 77° 21° (NNE) 331 1.6 -7.1°
Drops below altitude 10° 01:28:25 10° 109° (ESE) 1,218 4.2 -7.6°
Enters shadow 01:29:21 - 110° (ESE) 1,607 4.8 -7.7°
